Location: Berville
(49.1893°N, 2.0748°E)
Time: 17:21:43
(UTC+00:00)

Cosmos 2322 - Pass Details

Date: 08 February 2023
Orbit: 841 x 853 km, 71.0° (Epoch: 29 March)

Event Time Altitude Azimuth Distance (km) Brightness Sun altitude
Rises 17:46:15 0° 178° (S) 3,408 7.0 -8.1°
Reaches altitude 10° 17:48:52 10° 170° (S) 2,477 6.2 -8.5°
Maximum altitude 17:53:58 35° 106° (ESE) 1,346 4.3 -9.3°
Drops below altitude 10° 17:59:06 10° 43° (NE) 2,492 5.7 -10.1°
Enters shadow 18:00:37 - 37° (NE) 3,025 6.1 -10.4°
